User: anonymous   Login
Location: Stara Lesna
(49.1528°N, 20.2911°E)
Time: 23:51:51
(UTC+02:00)
Language:

Cosmos 1733 Rocket - Orbit

View from above orbital plane
View from above orbital plane
View from above satellite
View from above satellite

Ground track
Ground track

The orbit data is extracted from the following two-line orbital elements,

1 16612U 86018B   20275.49653703 +.00000078 +00000-0 +63515-5 0  9992
2 16612 082.5152 248.2999 0018626 140.5778 359.9195 14.84270356748694
Epoch (UTC): 01 October 2020 11:55:00
Eccentricity: 0.0018626
inclination: 82.5152°
perigee height: 603 km
apogee height: 629 km
right ascension of ascending node: 248.2999°
argument of perigee: 140.5778°
revolutions per day: 14.84270356
mean anomaly at epoch: 359.9195°
orbit number at epoch: 74869

The dashed part of the orbit path shows where the satellite is in the earth's shadow,  

DLR